CES2305 ZLLL-ZGGG

Flight info

Callsign CES2305
Flight time 2h 34m
Altitude 35100
Route IRMUB B330 KWE W181 DUDIT A599 GYA
Aircraft A320/M-SDE3FGHIRWYZ/EB1

Departure

Time 2026-05-08 08:10
Airport Lanzhou Zhongchuan International Airport (ZLLL)

Arrival

Time 2026-05-08 10:45
Airport Guangzhou Baiyun International Airport (ZGGG)
Time Latitude Longitude Altitude Speed Heading
2026-05-08 07:42 36.52211 103.63850 6408 ft 0 kts 220°
2026-05-08 07:55 36.52219 103.63858 6408 ft 2 kts 217°
2026-05-08 07:55 36.52235 103.63870 6408 ft 3 kts 202°
2026-05-08 07:55 36.52254 103.63876 6408 ft 3 kts 186°
2026-05-08 07:55 36.52274 103.63876 6408 ft 3 kts 171°
2026-05-08 07:56 36.52294 103.63868 6408 ft 3 kts 155°
2026-05-08 07:56 36.52312 103.63855 6408 ft 3 kts 141°
2026-05-08 07:56 36.52324 103.63840 6408 ft 0 kts 130°
2026-05-08 07:57 36.52324 103.63841 6408 ft 0 kts 130°
2026-05-08 07:58 36.52321 103.63845 6408 ft 3 kts 124°
2026-05-08 07:59 36.52303 103.63880 6408 ft 6 kts 121°
2026-05-08 07:59 36.52278 103.63932 6408 ft 8 kts 121°
2026-05-08 07:59 36.52255 103.63978 6408 ft 11 kts 123°
2026-05-08 07:59 36.52214 103.64049 6408 ft 9 kts 126°
2026-05-08 08:00 36.52170 103.64124 6408 ft 12 kts 126°
2026-05-08 08:00 36.52141 103.64231 6408 ft 9 kts 150°
2026-05-08 08:00 36.52097 103.64244 6408 ft 11 kts 176°
2026-05-08 08:00 36.52014 103.64249 6408 ft 13 kts 176°
2026-05-08 08:01 36.51909 103.64257 6408 ft 17 kts 176°
2026-05-08 08:01 36.51781 103.64266 6408 ft 20 kts 177°
2026-05-08 08:01 36.51634 103.64274 6408 ft 21 kts 177°
2026-05-08 08:01 36.51440 103.64285 6408 ft 21 kts 177°
2026-05-08 08:02 36.51344 103.64291 6408 ft 21 kts 176°
2026-05-08 08:02 36.51201 103.64301 6408 ft 20 kts 176°
2026-05-08 08:02 36.51062 103.64311 6408 ft 20 kts 177°
2026-05-08 08:02 36.50924 103.64319 6408 ft 20 kts 177°
2026-05-08 08:03 36.50791 103.64327 6408 ft 19 kts 177°
2026-05-08 08:03 36.50658 103.64336 6408 ft 19 kts 177°
2026-05-08 08:03 36.50528 103.64343 6408 ft 18 kts 177°
2026-05-08 08:03 36.50438 103.64341 6408 ft 8 kts 218°
2026-05-08 08:04 36.50429 103.64275 6408 ft 9 kts 268°
2026-05-08 08:04 36.50426 103.64181 6408 ft 12 kts 268°
2026-05-08 08:04 36.50423 103.64062 6408 ft 16 kts 267°
2026-05-08 08:04 36.50417 103.63906 6408 ft 19 kts 267°
2026-05-08 08:05 36.50411 103.63742 6408 ft 19 kts 267°
2026-05-08 08:05 36.50405 103.63578 6408 ft 19 kts 267°
2026-05-08 08:05 36.50399 103.63409 6408 ft 20 kts 267°
2026-05-08 08:05 36.50392 103.63233 6408 ft 21 kts 267°
2026-05-08 08:06 36.50385 103.63054 6408 ft 21 kts 267°
2026-05-08 08:06 36.50379 103.62886 6408 ft 18 kts 267°
2026-05-08 08:06 36.50367 103.62770 6408 ft 9 kts 227°
2026-05-08 08:06 36.50298 103.62762 6408 ft 13 kts 177°
2026-05-08 08:07 36.50189 103.62769 6408 ft 17 kts 177°
2026-05-08 08:07 36.50069 103.62776 6408 ft 17 kts 177°
2026-05-08 08:07 36.49945 103.62783 6408 ft 18 kts 177°
2026-05-08 08:07 36.49817 103.62791 6408 ft 19 kts 177°
2026-05-08 08:08 36.49688 103.62801 6408 ft 16 kts 176°
2026-05-08 08:08 36.49598 103.62805 6408 ft 9 kts 193°
2026-05-08 08:08 36.49578 103.62747 6408 ft 9 kts 270°
2026-05-08 08:08 36.49578 103.62664 6408 ft 11 kts 270°
2026-05-08 08:09 36.49618 103.62604 6408 ft 10 kts 352°
2026-05-08 08:09 36.49652 103.62603 6408 ft 0 kts 358°
2026-05-08 08:09 36.49659 103.62602 6408 ft 6 kts 358°
2026-05-08 08:09 36.49911 103.62586 6408 ft 70 kts 357°
2026-05-08 08:10 36.50608 103.62542 6408 ft 130 kts 357°
2026-05-08 08:10 36.51685 103.62473 6408 ft 179 kts 357°
2026-05-08 08:10 36.53010 103.62388 6714 ft 191 kts 357°
2026-05-08 08:10 36.54335 103.62303 7358 ft 193 kts 357°
2026-05-08 08:11 36.55690 103.62214 8060 ft 195 kts 358°
2026-05-08 08:11 36.57043 103.62129 8445 ft 203 kts 358°
2026-05-08 08:11 36.58528 103.62041 8537 ft 226 kts 357°
2026-05-08 08:11 36.60191 103.61939 8643 ft 250 kts 357°
2026-05-08 08:12 36.61955 103.61830 9107 ft 260 kts 357°
2026-05-08 08:12 36.63800 103.61715 9691 ft 267 kts 357°
2026-05-08 08:12 36.65666 103.61546 10215 ft 279 kts 351°
2026-05-08 08:12 36.67527 103.60753 10744 ft 289 kts 329°
2026-05-08 08:13 36.69029 103.59058 11366 ft 295 kts 304°
2026-05-08 08:13 36.69808 103.56710 12050 ft 297 kts 278°
2026-05-08 08:13 36.69691 103.54169 12791 ft 298 kts 253°
2026-05-08 08:13 36.68691 103.51921 13544 ft 301 kts 229°
2026-05-08 08:14 36.66987 103.50426 14239 ft 306 kts 203°
2026-05-08 08:14 36.64863 103.49919 14889 ft 311 kts 187°
2026-05-08 08:14 36.62708 103.49495 15437 ft 317 kts 191°
2026-05-08 08:14 36.60521 103.48984 16027 ft 322 kts 191°
2026-05-08 08:15 36.58313 103.48479 16611 ft 327 kts 191°
2026-05-08 08:15 36.56046 103.47976 17193 ft 331 kts 191°
2026-05-08 08:15 36.53775 103.47481 17758 ft 334 kts 190°
2026-05-08 08:15 36.51461 103.46982 18313 ft 338 kts 190°
2026-05-08 08:16 36.49148 103.46507 18849 ft 342 kts 188°
2026-05-08 08:16 36.46771 103.46200 19229 ft 352 kts 184°
2026-05-08 08:16 36.44234 103.46162 19308 ft 370 kts 178°
2026-05-08 08:16 36.41618 103.46308 19385 ft 388 kts 177°
2026-05-08 08:17 36.38875 103.46488 19503 ft 404 kts 176°
2026-05-08 08:17 36.36011 103.46768 19799 ft 415 kts 170°
2026-05-08 08:17 36.33275 103.47896 20150 ft 420 kts 151°
2026-05-08 08:17 36.30943 103.50050 20529 ft 423 kts 132°
2026-05-08 08:18 36.29145 103.52927 21011 ft 424 kts 123°
2026-05-08 08:18 36.27462 103.55959 21533 ft 426 kts 122°
2026-05-08 08:18 36.25799 103.58986 22008 ft 429 kts 122°
2026-05-08 08:18 36.24101 103.62079 22456 ft 432 kts 122°
2026-05-08 08:19 36.22405 103.65164 22875 ft 436 kts 122°
2026-05-08 08:19 36.20695 103.68268 23274 ft 440 kts 122°
2026-05-08 08:19 36.18969 103.71395 23665 ft 443 kts 122°
2026-05-08 08:19 36.17227 103.74549 24080 ft 445 kts 122°
2026-05-08 08:20 36.15464 103.77735 24457 ft 448 kts 122°
2026-05-08 08:20 36.13697 103.80924 24705 ft 454 kts 122°
2026-05-08 08:20 36.11914 103.84139 24774 ft 454 kts 122°
2026-05-08 08:20 36.10107 103.87392 24793 ft 454 kts 122°
2026-05-08 08:21 36.08339 103.90572 24798 ft 454 kts 122°
2026-05-08 08:21 36.06551 103.93786 24799 ft 454 kts 122°
2026-05-08 08:21 36.04744 103.97029 24799 ft 454 kts 122°
2026-05-08 08:21 36.02958 104.00232 24799 ft 454 kts 122°
2026-05-08 08:22 36.01171 104.03435 24885 ft 455 kts 122°
2026-05-08 08:22 35.99363 104.06672 25271 ft 457 kts 122°
2026-05-08 08:22 35.97565 104.09890 25616 ft 460 kts 122°
2026-05-08 08:22 35.95727 104.13174 25940 ft 463 kts 122°
2026-05-08 08:23 35.93902 104.16434 26245 ft 466 kts 122°
2026-05-08 08:23 35.92052 104.19733 26545 ft 469 kts 122°
2026-05-08 08:23 35.90197 104.23041 26731 ft 475 kts 122°
2026-05-08 08:23 35.88290 104.26436 26781 ft 476 kts 122°
2026-05-08 08:24 35.86388 104.29748 26792 ft 477 kts 126°
2026-05-08 08:24 35.84026 104.32601 26796 ft 480 kts 142°
2026-05-08 08:24 35.81084 104.34586 26798 ft 482 kts 159°
2026-05-08 08:24 35.77849 104.35507 26799 ft 482 kts 175°
2026-05-08 08:25 35.74479 104.35644 26926 ft 483 kts 180°
2026-05-08 08:25 35.71125 104.35684 27270 ft 484 kts 180°
2026-05-08 08:25 35.67764 104.35706 27579 ft 487 kts 180°
2026-05-08 08:25 35.64346 104.35712 27864 ft 490 kts 180°
2026-05-08 08:26 35.60942 104.35730 28146 ft 493 kts 179°
2026-05-08 08:26 35.57522 104.35756 28428 ft 495 kts 179°
2026-05-08 08:26 35.54037 104.35788 28718 ft 498 kts 178°
2026-05-08 08:26 35.50590 104.35823 29001 ft 500 kts 178°
2026-05-08 08:27 35.47107 104.35860 29290 ft 503 kts 178°
2026-05-08 08:27 35.43580 104.35898 29606 ft 504 kts 177°
2026-05-08 08:27 35.40086 104.35940 29951 ft 505 kts 177°
2026-05-08 08:27 35.36534 104.35985 30322 ft 505 kts 176°
2026-05-08 08:28 35.33053 104.36030 30705 ft 504 kts 176°
2026-05-08 08:28 35.29566 104.36076 31074 ft 502 kts 175°
2026-05-08 08:28 35.26063 104.36126 31218 ft 497 kts 175°
2026-05-08 08:29 35.19218 104.36241 31266 ft 493 kts 175°
2026-05-08 08:29 35.12360 104.36360 31270 ft 492 kts 175°
2026-05-08 08:30 35.05502 104.36475 31270 ft 492 kts 175°
2026-05-08 08:30 34.95233 104.36643 31269 ft 492 kts 175°
2026-05-08 08:31 34.88374 104.36753 31270 ft 492 kts 175°
2026-05-08 08:31 34.81533 104.36870 31270 ft 495 kts 175°
2026-05-08 08:32 34.74603 104.36995 31270 ft 498 kts 176°
2026-05-08 08:32 34.67703 104.37099 31270 ft 498 kts 176°
2026-05-08 08:33 34.60782 104.37204 31270 ft 498 kts 176°
2026-05-08 08:33 34.53856 104.37311 31270 ft 498 kts 176°
2026-05-08 08:34 34.46899 104.37418 31269 ft 498 kts 176°
2026-05-08 08:34 34.39993 104.37525 31270 ft 498 kts 176°
2026-05-08 08:35 34.33074 104.37632 31270 ft 498 kts 176°
2026-05-08 08:35 34.29596 104.37686 31382 ft 499 kts 176°
2026-05-08 08:35 34.26151 104.37737 31697 ft 500 kts 176°
2026-05-08 08:36 34.22631 104.37791 32066 ft 498 kts 181°
2026-05-08 08:36 34.19187 104.37921 32516 ft 494 kts 184°
2026-05-08 08:36 34.15795 104.37978 32926 ft 490 kts 184°
2026-05-08 08:36 34.12376 104.38010 33176 ft 487 kts 185°
2026-05-08 08:37 34.05663 104.38087 33264 ft 480 kts 185°
2026-05-08 08:37 33.99011 104.38175 33269 ft 477 kts 184°
2026-05-08 08:38 33.92384 104.38267 33270 ft 477 kts 184°
2026-05-08 08:38 33.85766 104.38365 33270 ft 477 kts 184°
2026-05-08 08:39 33.79127 104.38466 33270 ft 477 kts 184°
2026-05-08 08:39 33.72469 104.38569 33270 ft 477 kts 184°
2026-05-08 08:40 33.65834 104.38678 33269 ft 478 kts 183°
2026-05-08 08:40 33.59237 104.40071 33269 ft 489 kts 165°
2026-05-08 08:41 33.53149 104.43765 33272 ft 495 kts 152°
2026-05-08 08:41 33.47235 104.48025 33270 ft 495 kts 152°
2026-05-08 08:42 33.41298 104.52194 33268 ft 493 kts 156°
2026-05-08 08:42 33.34895 104.54823 33270 ft 484 kts 174°
2026-05-08 08:43 33.28222 104.55541 33271 ft 479 kts 181°
2026-05-08 08:43 33.21590 104.55963 33270 ft 478 kts 182°
2026-05-08 08:44 33.14955 104.56373 33296 ft 477 kts 181°
2026-05-08 08:44 33.08346 104.56786 33299 ft 477 kts 181°
2026-05-08 08:45 33.01738 104.57202 33299 ft 477 kts 181°
2026-05-08 08:45 32.95105 104.57620 33299 ft 477 kts 181°
2026-05-08 08:46 32.88466 104.58040 33299 ft 477 kts 181°
2026-05-08 08:46 32.81840 104.58459 33299 ft 477 kts 181°
2026-05-08 08:47 32.75200 104.58869 33299 ft 477 kts 182°
2026-05-08 08:47 32.68573 104.59175 33299 ft 476 kts 182°
2026-05-08 08:48 32.61967 104.59464 33299 ft 476 kts 182°
2026-05-08 08:48 32.55337 104.59756 33299 ft 476 kts 182°
2026-05-08 08:49 32.48715 104.60055 33299 ft 476 kts 182°
2026-05-08 08:49 32.42091 104.60357 33299 ft 476 kts 182°
2026-05-08 08:50 32.35476 104.60696 33299 ft 472 kts 182°
2026-05-08 08:50 32.32265 104.60884 33300 ft 460 kts 182°
2026-05-08 08:50 32.30129 104.61005 33300 ft 461 kts 182°
2026-05-08 08:51 32.22618 104.61414 33299 ft 464 kts 182°
2026-05-08 08:51 32.16193 104.61764 33299 ft 463 kts 182°
2026-05-08 08:52 32.09729 104.62117 33299 ft 463 kts 182°
2026-05-08 08:52 32.03320 104.62465 33299 ft 464 kts 182°
2026-05-08 08:53 31.97911 104.62759 33300 ft 463 kts 182°
2026-05-08 08:53 31.91489 104.63108 33299 ft 463 kts 182°
2026-05-08 08:54 31.85060 104.63457 33300 ft 464 kts 182°
2026-05-08 08:54 31.78608 104.63807 33300 ft 463 kts 182°
2026-05-08 08:55 31.72175 104.64086 33299 ft 463 kts 183°
2026-05-08 08:55 31.65731 104.64336 33300 ft 463 kts 183°
2026-05-08 08:56 31.59330 104.64586 33299 ft 463 kts 184°
2026-05-08 08:56 31.52807 104.64861 33300 ft 472 kts 185°
2026-05-08 08:57 31.46242 104.65115 33298 ft 472 kts 185°
2026-05-08 08:57 31.39678 104.65370 33272 ft 472 kts 185°
2026-05-08 08:58 31.33094 104.65626 33271 ft 472 kts 185°
2026-05-08 08:58 31.26534 104.65882 33269 ft 472 kts 185°
2026-05-08 08:59 31.19975 104.66138 33270 ft 472 kts 185°
2026-05-08 08:59 31.13389 104.66395 33298 ft 473 kts 185°
2026-05-08 09:00 31.06859 104.66650 33299 ft 472 kts 185°
2026-05-08 09:00 31.00261 104.67152 33300 ft 476 kts 181°
2026-05-08 09:01 30.93658 104.67906 33299 ft 476 kts 181°
2026-05-08 09:01 30.87089 104.68661 33299 ft 476 kts 181°
2026-05-08 09:02 30.80498 104.69415 33300 ft 476 kts 181°
2026-05-08 09:02 30.73957 104.70205 33299 ft 467 kts 184°
2026-05-08 09:03 30.67483 104.70942 33299 ft 469 kts 184°
2026-05-08 09:03 30.60975 104.71670 33300 ft 469 kts 184°
2026-05-08 09:04 30.54479 104.72397 33299 ft 469 kts 184°
2026-05-08 09:04 30.47991 104.73118 33300 ft 469 kts 184°
2026-05-08 09:05 30.41508 104.73837 33299 ft 469 kts 184°
2026-05-08 09:05 30.34973 104.74562 33299 ft 469 kts 184°
2026-05-08 09:06 30.28495 104.75281 33300 ft 469 kts 184°
2026-05-08 09:06 30.22009 104.76000 33298 ft 469 kts 184°
2026-05-08 09:07 30.15527 104.76719 33300 ft 469 kts 184°
2026-05-08 09:07 30.09026 104.77439 33300 ft 469 kts 184°
2026-05-08 09:08 30.02518 104.78159 33299 ft 469 kts 184°
2026-05-08 09:08 29.96070 104.78891 33300 ft 462 kts 185°
2026-05-08 09:09 29.89669 104.79597 33299 ft 463 kts 185°
2026-05-08 09:09 29.83227 104.80303 33300 ft 463 kts 185°
2026-05-08 09:10 29.76830 104.81004 33299 ft 463 kts 185°
2026-05-08 09:10 29.70392 104.81710 33299 ft 463 kts 185°
2026-05-08 09:11 29.63990 104.82412 33299 ft 463 kts 185°
2026-05-08 09:11 29.57590 104.83114 33300 ft 463 kts 185°
2026-05-08 09:12 29.51142 104.83820 33299 ft 463 kts 185°
2026-05-08 09:12 29.44745 104.84521 33299 ft 463 kts 185°
2026-05-08 09:13 29.38328 104.85233 33298 ft 465 kts 184°
2026-05-08 09:13 29.31889 104.86739 33299 ft 481 kts 173°
2026-05-08 09:14 29.25582 104.89613 33300 ft 491 kts 166°
2026-05-08 09:14 29.19342 104.92780 33300 ft 495 kts 166°
2026-05-08 09:15 29.13025 104.95986 33299 ft 497 kts 166°
2026-05-08 09:15 29.06711 104.99185 33300 ft 497 kts 166°
2026-05-08 09:16 29.00382 105.02391 33299 ft 497 kts 166°
2026-05-08 09:16 28.94075 105.05578 33300 ft 496 kts 166°
2026-05-08 09:17 28.87734 105.08757 33299 ft 496 kts 166°
2026-05-08 09:17 28.81406 105.11923 33299 ft 496 kts 166°
2026-05-08 09:18 28.75137 105.15215 33300 ft 502 kts 162°
2026-05-08 09:18 28.68954 105.18956 33299 ft 503 kts 161°
2026-05-08 09:19 28.62764 105.22739 33299 ft 503 kts 161°
2026-05-08 09:19 28.56612 105.26488 33299 ft 503 kts 161°
2026-05-08 09:20 28.50446 105.30235 33299 ft 503 kts 162°
2026-05-08 09:20 28.44262 105.33984 33299 ft 503 kts 161°
2026-05-08 09:21 28.38078 105.37712 33299 ft 503 kts 161°
2026-05-08 09:23 28.16431 105.50757 33299 ft 503 kts 161°
2026-05-08 09:23 28.10285 105.54434 33299 ft 501 kts 162°
2026-05-08 09:24 28.03917 105.57299 33299 ft 485 kts 174°
2026-05-08 09:24 27.97388 105.58736 33300 ft 473 kts 182°
2026-05-08 09:25 27.90862 105.59753 33299 ft 473 kts 182°
2026-05-08 09:25 27.84341 105.60792 33299 ft 476 kts 180°
2026-05-08 09:26 27.77892 105.62827 33299 ft 494 kts 168°
2026-05-08 09:26 27.71649 105.66329 33300 ft 504 kts 161°
2026-05-08 09:27 27.65484 105.69984 33299 ft 499 kts 162°
2026-05-08 09:27 27.59245 105.73374 33299 ft 499 kts 163°
2026-05-08 09:28 27.52965 105.76767 33299 ft 499 kts 163°
2026-05-08 09:28 27.46717 105.80141 33299 ft 499 kts 163°
2026-05-08 09:29 27.40469 105.83512 33299 ft 499 kts 163°
2026-05-08 09:29 27.37241 105.85254 33299 ft 499 kts 163°
2026-05-08 09:30 27.33788 105.87115 33299 ft 499 kts 163°
2026-05-08 09:30 27.27542 105.90479 33299 ft 499 kts 163°
2026-05-08 09:31 27.21273 105.93853 33299 ft 499 kts 163°
2026-05-08 09:31 27.14989 105.97230 33299 ft 499 kts 163°
2026-05-08 09:32 27.08738 106.00625 33302 ft 502 kts 160°
2026-05-08 09:32 27.02984 106.05235 33326 ft 521 kts 143°
2026-05-08 09:33 26.98280 106.11500 33331 ft 528 kts 133°
2026-05-08 09:33 26.96078 106.14780 33329 ft 517 kts 132°
2026-05-08 09:33 26.93920 106.18007 33330 ft 519 kts 132°
2026-05-08 09:34 26.89596 106.24472 33329 ft 520 kts 132°
2026-05-08 09:34 26.85267 106.30933 33329 ft 520 kts 132°
2026-05-08 09:35 26.80902 106.37430 33329 ft 520 kts 132°
2026-05-08 09:35 26.76563 106.43874 33329 ft 520 kts 132°
2026-05-08 09:36 26.72191 106.50353 33329 ft 520 kts 132°
2026-05-08 09:36 26.67837 106.56793 33329 ft 520 kts 132°
2026-05-08 09:37 26.63472 106.63236 33329 ft 520 kts 132°
2026-05-08 09:37 26.59117 106.69655 33329 ft 520 kts 132°
2026-05-08 09:38 26.54721 106.76123 33329 ft 520 kts 132°
2026-05-08 09:38 26.50168 106.82295 33329 ft 515 kts 140°
2026-05-08 09:39 26.45057 106.87898 33329 ft 513 kts 142°
2026-05-08 09:39 26.39942 106.93417 33329 ft 513 kts 142°
2026-05-08 09:40 26.34822 106.98958 33329 ft 513 kts 142°
2026-05-08 09:40 26.29701 107.04519 33329 ft 513 kts 141°
2026-05-08 09:41 26.24620 107.10051 33329 ft 513 kts 141°
2026-05-08 09:41 26.20338 107.14724 33329 ft 513 kts 141°
2026-05-08 09:42 26.14427 107.21183 33329 ft 513 kts 141°
2026-05-08 09:42 26.10144 107.25866 33307 ft 513 kts 141°
2026-05-08 09:43 26.05076 107.31407 33300 ft 513 kts 141°
2026-05-08 09:43 25.99996 107.36947 33299 ft 511 kts 141°
2026-05-08 09:44 25.94927 107.42477 33299 ft 512 kts 141°
2026-05-08 09:44 25.89825 107.48048 33277 ft 512 kts 141°
2026-05-08 09:45 25.84780 107.53553 33270 ft 512 kts 141°
2026-05-08 09:45 25.79682 107.59110 33270 ft 512 kts 141°
2026-05-08 09:46 25.74597 107.64647 33270 ft 512 kts 141°
2026-05-08 09:46 25.69526 107.70163 33248 ft 512 kts 141°
2026-05-08 09:47 25.64463 107.75680 33241 ft 512 kts 140°
2026-05-08 09:47 25.59391 107.81212 33240 ft 512 kts 140°
2026-05-08 09:48 25.54300 107.86766 33240 ft 512 kts 140°
2026-05-08 09:48 25.49196 107.92248 33238 ft 507 kts 144°
2026-05-08 09:48 25.46381 107.94502 33238 ft 498 kts 155°
2026-05-08 09:49 25.43286 107.96115 33240 ft 488 kts 167°
2026-05-08 09:49 25.40050 107.97018 33240 ft 477 kts 178°
2026-05-08 09:49 25.36771 107.97470 33221 ft 475 kts 180°
2026-05-08 09:50 25.30185 107.98271 33211 ft 474 kts 181°
2026-05-08 09:50 25.23625 107.99057 33211 ft 475 kts 181°
2026-05-08 09:51 25.17091 107.99842 33211 ft 475 kts 181°
2026-05-08 09:51 25.10508 108.00635 33202 ft 475 kts 181°
2026-05-08 09:52 25.03932 108.01429 33183 ft 474 kts 181°
2026-05-08 09:52 24.97432 108.02941 33178 ft 494 kts 160°
2026-05-08 09:52 24.94561 108.05049 33188 ft 506 kts 146°
2026-05-08 09:53 24.91877 108.07545 33184 ft 507 kts 144°
2026-05-08 09:53 24.86497 108.12615 33181 ft 507 kts 144°
2026-05-08 09:54 24.81154 108.17648 33181 ft 507 kts 144°
2026-05-08 09:54 24.75796 108.22684 33181 ft 507 kts 144°
2026-05-08 09:55 24.70402 108.27731 33181 ft 509 kts 144°
2026-05-08 09:55 24.65040 108.32736 33181 ft 508 kts 144°
2026-05-08 09:56 24.59633 108.37789 33164 ft 509 kts 144°
2026-05-08 09:56 24.54269 108.42795 33153 ft 508 kts 144°
2026-05-08 09:57 24.46185 108.50325 33152 ft 508 kts 144°
2026-05-08 09:57 24.40768 108.55362 33152 ft 508 kts 144°
2026-05-08 09:58 24.35362 108.60382 33152 ft 508 kts 144°
2026-05-08 09:58 24.30000 108.65355 33152 ft 508 kts 144°
2026-05-08 09:59 24.24604 108.70353 33152 ft 508 kts 144°
2026-05-08 09:59 24.19205 108.75347 33152 ft 508 kts 144°
2026-05-08 10:00 24.13857 108.80286 33152 ft 501 kts 144°
2026-05-08 10:00 24.08515 108.85216 33152 ft 502 kts 144°
2026-05-08 10:01 24.03171 108.90143 33152 ft 502 kts 144°
2026-05-08 10:01 23.97816 108.95074 33152 ft 502 kts 144°
2026-05-08 10:02 23.92464 108.99995 33129 ft 502 kts 144°
2026-05-08 10:02 23.87115 109.04908 33123 ft 502 kts 144°
2026-05-08 10:03 23.81778 109.09802 33122 ft 502 kts 144°
2026-05-08 10:03 23.77127 109.15511 33120 ft 511 kts 123°
2026-05-08 10:04 23.75592 109.19000 33121 ft 514 kts 111°
2026-05-08 10:04 23.74629 109.22768 33127 ft 515 kts 104°
2026-05-08 10:04 23.73074 109.30422 33123 ft 515 kts 102°
2026-05-08 10:05 23.71560 109.38042 33122 ft 515 kts 102°
2026-05-08 10:05 23.70042 109.45665 33122 ft 515 kts 102°
2026-05-08 10:06 23.68516 109.53284 33122 ft 510 kts 102°
2026-05-08 10:06 23.66999 109.60831 33122 ft 511 kts 102°
2026-05-08 10:07 23.65449 109.68402 33100 ft 511 kts 103°
2026-05-08 10:07 23.63890 109.75969 33093 ft 511 kts 103°
2026-05-08 10:08 23.62331 109.83525 33093 ft 511 kts 103°
2026-05-08 10:08 23.60763 109.91119 33093 ft 511 kts 103°
2026-05-08 10:09 23.59201 109.98679 33093 ft 511 kts 103°
2026-05-08 10:09 23.57636 110.06231 33093 ft 511 kts 103°
2026-05-08 10:10 23.56072 110.13769 33093 ft 511 kts 103°
2026-05-08 10:10 23.54499 110.21333 33093 ft 511 kts 103°
2026-05-08 10:11 23.52914 110.28876 33093 ft 512 kts 102°
2026-05-08 10:11 23.51324 110.36450 33093 ft 511 kts 102°
2026-05-08 10:12 23.49770 110.43991 33047 ft 512 kts 102°
2026-05-08 10:12 23.48991 110.47802 32695 ft 514 kts 102°
2026-05-08 10:12 23.48221 110.51576 32196 ft 509 kts 102°
2026-05-08 10:13 23.47454 110.55292 31698 ft 503 kts 101°
2026-05-08 10:13 23.46678 110.59011 31193 ft 496 kts 100°
2026-05-08 10:13 23.45937 110.62628 30695 ft 490 kts 100°
2026-05-08 10:13 23.45208 110.66209 30198 ft 486 kts 100°
2026-05-08 10:14 23.44475 110.69817 29693 ft 483 kts 100°
2026-05-08 10:14 23.43749 110.73365 29193 ft 480 kts 101°
2026-05-08 10:14 23.43014 110.76876 28694 ft 476 kts 101°
2026-05-08 10:14 23.42269 110.80412 28188 ft 472 kts 101°
2026-05-08 10:15 23.41539 110.83873 27689 ft 469 kts 101°
2026-05-08 10:15 23.40815 110.87306 27190 ft 465 kts 101°
2026-05-08 10:15 23.40097 110.90715 26691 ft 462 kts 101°
2026-05-08 10:15 23.39383 110.94096 26191 ft 457 kts 101°
2026-05-08 10:16 23.38667 110.97491 25685 ft 453 kts 102°
2026-05-08 10:16 23.37965 111.00807 25186 ft 448 kts 102°
2026-05-08 10:16 23.37275 111.04063 24688 ft 441 kts 102°
2026-05-08 10:16 23.36593 111.07281 24190 ft 436 kts 102°
2026-05-08 10:17 23.35909 111.10502 23686 ft 432 kts 102°
2026-05-08 10:17 23.35238 111.13661 23187 ft 429 kts 102°
2026-05-08 10:17 23.34576 111.16803 22772 ft 423 kts 102°
2026-05-08 10:17 23.33934 111.19909 22640 ft 421 kts 102°
2026-05-08 10:18 23.33288 111.23052 22605 ft 424 kts 102°
2026-05-08 10:18 23.32648 111.26171 22596 ft 424 kts 102°
2026-05-08 10:18 23.32007 111.29299 22593 ft 424 kts 102°
2026-05-08 10:18 23.31367 111.32422 22593 ft 424 kts 102°
2026-05-08 10:19 23.30718 111.35588 22593 ft 424 kts 102°
2026-05-08 10:19 23.30080 111.38698 22583 ft 425 kts 102°
2026-05-08 10:19 23.29442 111.41806 22568 ft 424 kts 102°
2026-05-08 10:20 23.28155 111.48073 22563 ft 424 kts 102°
2026-05-08 10:20 23.27505 111.51240 22357 ft 425 kts 102°
2026-05-08 10:20 23.26856 111.54353 22046 ft 422 kts 102°
2026-05-08 10:20 23.26201 111.57446 21764 ft 416 kts 102°
2026-05-08 10:21 23.25549 111.60511 21690 ft 416 kts 102°
2026-05-08 10:21 23.24901 111.63564 21670 ft 417 kts 102°
2026-05-08 10:21 23.24253 111.66616 21665 ft 417 kts 102°
2026-05-08 10:21 23.23596 111.69715 21664 ft 417 kts 102°
2026-05-08 10:22 23.22945 111.72781 21663 ft 417 kts 102°
2026-05-08 10:22 23.22292 111.75860 21663 ft 417 kts 102°
2026-05-08 10:22 23.21641 111.78926 21663 ft 419 kts 102°
2026-05-08 10:22 23.20985 111.82008 21479 ft 422 kts 102°
2026-05-08 10:23 23.20325 111.85140 20893 ft 420 kts 102°
2026-05-08 10:23 23.19688 111.88200 20394 ft 415 kts 102°
2026-05-08 10:23 23.19062 111.91218 19896 ft 409 kts 102°
2026-05-08 10:23 23.18435 111.94241 19391 ft 404 kts 102°
2026-05-08 10:24 23.17822 111.97197 18892 ft 400 kts 102°
2026-05-08 10:24 23.17214 112.00117 18393 ft 396 kts 102°
2026-05-08 10:24 23.16604 112.03047 17888 ft 392 kts 103°
2026-05-08 10:24 23.16008 112.05908 17390 ft 389 kts 103°
2026-05-08 10:25 23.15414 112.08753 16890 ft 385 kts 103°
2026-05-08 10:25 23.14825 112.11573 16391 ft 382 kts 103°
2026-05-08 10:25 23.14239 112.14375 15891 ft 380 kts 103°
2026-05-08 10:25 23.13651 112.17184 15386 ft 377 kts 103°
2026-05-08 10:26 23.13072 112.19948 14886 ft 374 kts 103°
2026-05-08 10:26 23.12501 112.22672 14389 ft 371 kts 103°
2026-05-08 10:26 23.11924 112.25420 13941 ft 367 kts 103°
2026-05-08 10:26 23.11365 112.28082 13786 ft 360 kts 104°
2026-05-08 10:27 23.10809 112.30720 13747 ft 361 kts 104°
2026-05-08 10:27 23.10245 112.33393 13737 ft 362 kts 104°
2026-05-08 10:27 23.09686 112.36048 13734 ft 362 kts 104°
2026-05-08 10:27 23.09119 112.38731 13734 ft 362 kts 104°
2026-05-08 10:28 23.08561 112.41379 13734 ft 362 kts 104°
2026-05-08 10:28 23.07995 112.44056 13710 ft 363 kts 104°
2026-05-08 10:28 23.07436 112.46702 13440 ft 361 kts 104°
2026-05-08 10:28 23.06966 112.49377 13185 ft 359 kts 96°
2026-05-08 10:29 23.06891 112.52064 12941 ft 357 kts 90°
2026-05-08 10:29 23.06913 112.54787 12688 ft 356 kts 90°
2026-05-08 10:29 23.06938 112.57460 12438 ft 355 kts 90°
2026-05-08 10:29 23.06956 112.60133 12187 ft 353 kts 90°
2026-05-08 10:30 23.06968 112.62788 11936 ft 351 kts 90°
2026-05-08 10:30 23.06975 112.65422 11635 ft 350 kts 90°
2026-05-08 10:30 23.06978 112.67188 11387 ft 348 kts 90°
2026-05-08 10:30 23.06981 112.70682 10884 ft 344 kts 90°
2026-05-08 10:31 23.06970 112.73237 10509 ft 336 kts 91°
2026-05-08 10:31 23.06951 112.75732 10135 ft 328 kts 91°
2026-05-08 10:31 23.06933 112.78180 9781 ft 319 kts 91°
2026-05-08 10:31 23.06915 112.80559 9478 ft 309 kts 91°
2026-05-08 10:32 23.06904 112.82100 9264 ft 303 kts 91°
2026-05-08 10:32 23.06844 112.84340 8892 ft 296 kts 95°
2026-05-08 10:32 23.06574 112.87270 8391 ft 290 kts 97°
2026-05-08 10:32 23.06424 112.88729 8138 ft 288 kts 97°
2026-05-08 10:33 23.06201 112.90867 7765 ft 285 kts 97°
2026-05-08 10:33 23.05975 112.93005 7388 ft 283 kts 97°
2026-05-08 10:33 23.05745 112.95131 7039 ft 280 kts 97°
2026-05-08 10:33 23.05516 112.97187 6784 ft 269 kts 97°
2026-05-08 10:34 23.05289 112.99165 6530 ft 258 kts 97°
2026-05-08 10:34 23.05066 113.01048 6277 ft 248 kts 97°
2026-05-08 10:34 23.04844 113.02858 6025 ft 239 kts 97°
2026-05-08 10:34 23.04620 113.04619 5771 ft 229 kts 97°
2026-05-08 10:35 23.04403 113.06275 5560 ft 217 kts 97°
2026-05-08 10:35 23.04192 113.07850 5375 ft 203 kts 97°
2026-05-08 10:35 23.03988 113.09342 5173 ft 199 kts 97°
2026-05-08 10:35 23.03782 113.10833 4980 ft 196 kts 97°
2026-05-08 10:36 23.03581 113.12285 4921 ft 195 kts 97°
2026-05-08 10:36 23.03380 113.13742 4905 ft 196 kts 97°
2026-05-08 10:36 23.03294 113.15201 4878 ft 194 kts 78°
2026-05-08 10:36 23.03924 113.16457 4910 ft 194 kts 46°
2026-05-08 10:37 23.04969 113.17392 4894 ft 192 kts 31°
2026-05-08 10:37 23.06159 113.18059 4901 ft 193 kts 26°
2026-05-08 10:37 23.07371 113.18646 4901 ft 192 kts 22°
2026-05-08 10:37 23.08625 113.19175 4900 ft 192 kts 20°
2026-05-08 10:38 23.09883 113.19648 4900 ft 192 kts 18°
2026-05-08 10:38 23.11166 113.20090 4900 ft 192 kts 17°
2026-05-08 10:38 23.12450 113.20501 4900 ft 192 kts 16°
2026-05-08 10:38 23.13734 113.20892 4842 ft 195 kts 15°
2026-05-08 10:39 23.15031 113.21270 4596 ft 192 kts 15°
2026-05-08 10:39 23.16315 113.21634 4354 ft 191 kts 15°
2026-05-08 10:39 23.17599 113.21993 4110 ft 190 kts 15°
2026-05-08 10:39 23.18890 113.22348 3863 ft 190 kts 15°
2026-05-08 10:40 23.20163 113.22696 3619 ft 189 kts 14°
2026-05-08 10:40 23.21441 113.23043 3373 ft 188 kts 14°
2026-05-08 10:40 23.22705 113.23384 3129 ft 187 kts 14°
2026-05-08 10:40 23.23974 113.23727 2882 ft 187 kts 14°
2026-05-08 10:41 23.25210 113.24061 2637 ft 183 kts 14°
2026-05-08 10:41 23.26427 113.24388 2384 ft 172 kts 14°
2026-05-08 10:41 23.27546 113.24690 2208 ft 165 kts 14°
2026-05-08 10:41 23.28650 113.24988 1982 ft 163 kts 14°
2026-05-08 10:42 23.29707 113.25273 1769 ft 147 kts 14°
2026-05-08 10:42 23.30670 113.25533 1564 ft 140 kts 14°
2026-05-08 10:42 23.31608 113.25786 1382 ft 139 kts 14°
2026-05-08 10:42 23.32552 113.26041 1200 ft 139 kts 14°
2026-05-08 10:43 23.33491 113.26294 1029 ft 139 kts 14°
2026-05-08 10:43 23.34431 113.26546 858 ft 139 kts 14°
2026-05-08 10:43 23.35367 113.26794 657 ft 138 kts 13°
2026-05-08 10:43 23.36307 113.27046 456 ft 138 kts 14°
2026-05-08 10:44 23.37230 113.27298 281 ft 137 kts 14°
2026-05-08 10:44 23.38158 113.27554 122 ft 137 kts 14°
2026-05-08 10:44 23.39025 113.27792 65 ft 109 kts 14°
2026-05-08 10:44 23.39585 113.27942 65 ft 58 kts 14°
2026-05-08 10:45 23.39832 113.28017 65 ft 25 kts 32°
2026-05-08 10:45 23.39960 113.28124 65 ft 23 kts 38°
2026-05-08 10:45 23.40081 113.28229 65 ft 22 kts 39°
2026-05-08 10:45 23.40200 113.28279 65 ft 18 kts 15°
2026-05-08 10:46 23.40326 113.28312 65 ft 19 kts 13°
2026-05-08 10:46 23.40452 113.28346 65 ft 19 kts 14°
2026-05-08 10:46 23.40582 113.28381 65 ft 19 kts 14°
2026-05-08 10:46 23.40711 113.28416 65 ft 19 kts 14°
2026-05-08 10:47 23.40840 113.28451 65 ft 19 kts 13°
2026-05-08 10:47 23.40925 113.28491 65 ft 11 kts 75°
2026-05-08 10:47 23.40912 113.28572 65 ft 12 kts 103°
2026-05-08 10:47 23.40887 113.28683 65 ft 18 kts 104°
2026-05-08 10:48 23.40855 113.28821 65 ft 19 kts 104°
2026-05-08 10:48 23.40863 113.28907 65 ft 10 kts 12°
2026-05-08 10:48 23.40941 113.28923 65 ft 13 kts 13°
2026-05-08 10:48 23.41039 113.28949 65 ft 15 kts 13°
2026-05-08 10:49 23.41144 113.28977 65 ft 16 kts 14°
2026-05-08 10:49 23.41249 113.29005 65 ft 16 kts 14°
2026-05-08 10:49 23.41356 113.29035 65 ft 16 kts 14°
2026-05-08 10:49 23.41465 113.29064 65 ft 16 kts 14°
2026-05-08 10:50 23.41574 113.29094 65 ft 16 kts 14°
2026-05-08 10:50 23.41679 113.29125 65 ft 16 kts 22°
2026-05-08 10:50 23.41754 113.29207 65 ft 16 kts 65°
2026-05-08 10:50 23.41753 113.29324 65 ft 16 kts 103°
2026-05-08 10:51 23.41725 113.29443 65 ft 16 kts 104°
2026-05-08 10:51 23.41698 113.29560 65 ft 15 kts 103°
2026-05-08 10:51 23.41638 113.29614 65 ft 13 kts 192°
2026-05-08 10:51 23.41545 113.29591 65 ft 14 kts 193°
2026-05-08 10:52 23.41450 113.29567 65 ft 15 kts 193°
2026-05-08 10:52 23.41340 113.29540 65 ft 17 kts 193°
2026-05-08 10:52 23.41223 113.29510 65 ft 18 kts 193°
2026-05-08 10:52 23.41106 113.29485 65 ft 17 kts 179°
2026-05-08 10:53 23.40991 113.29510 65 ft 16 kts 171°
2026-05-08 10:53 23.40880 113.29498 65 ft 16 kts 194°
2026-05-08 10:53 23.40776 113.29469 65 ft 14 kts 194°
2026-05-08 10:53 23.40691 113.29458 65 ft 10 kts 141°
2026-05-08 10:54 23.40669 113.29526 65 ft 11 kts 104°
2026-05-08 10:54 23.40647 113.29617 65 ft 14 kts 105°
2026-05-08 10:54 23.40621 113.29731 65 ft 17 kts 104°
2026-05-08 10:54 23.40589 113.29870 65 ft 20 kts 104°
2026-05-08 10:55 23.40555 113.30018 65 ft 20 kts 104°
2026-05-08 10:55 23.40522 113.30159 65 ft 19 kts 104°
2026-05-08 10:55 23.40490 113.30296 65 ft 19 kts 104°
2026-05-08 10:55 23.40459 113.30430 65 ft 18 kts 104°
2026-05-08 10:56 23.40427 113.30566 65 ft 19 kts 104°
2026-05-08 10:56 23.40395 113.30703 65 ft 19 kts 104°
2026-05-08 10:56 23.40364 113.30842 65 ft 19 kts 104°
2026-05-08 10:56 23.40333 113.30976 65 ft 13 kts 104°
2026-05-08 10:57 23.40359 113.31003 65 ft 6 kts 358°
2026-05-08 10:57 23.40407 113.31003 65 ft 9 kts
2026-05-08 10:57 23.40627 113.31062 65 ft 23 kts 14°
2026-05-08 10:58 23.40780 113.31102 65 ft 23 kts 13°
2026-05-08 10:58 23.40931 113.31142 65 ft 22 kts 14°
2026-05-08 10:58 23.41079 113.31182 65 ft 22 kts 14°
2026-05-08 10:58 23.41226 113.31222 65 ft 22 kts 14°
2026-05-08 10:59 23.41369 113.31269 65 ft 21 kts 22°
2026-05-08 10:59 23.41510 113.31312 65 ft 21 kts 13°
2026-05-08 10:59 23.41639 113.31349 65 ft 17 kts 29°
2026-05-08 10:59 23.41678 113.31455 65 ft 16 kts 104°
2026-05-08 11:00 23.41650 113.31576 65 ft 16 kts 105°
2026-05-08 11:00 23.41616 113.31693 65 ft 15 kts 121°
2026-05-08 11:00 23.41544 113.31780 65 ft 16 kts 135°
2026-05-08 11:00 23.41466 113.31865 65 ft 16 kts 135°
2026-05-08 11:01 23.41389 113.31951 65 ft 16 kts 134°
2026-05-08 11:01 23.41310 113.32039 65 ft 16 kts 134°
2026-05-08 11:01 23.41232 113.32127 65 ft 17 kts 134°
2026-05-08 11:01 23.41139 113.32189 65 ft 16 kts 171°
2026-05-08 11:02 23.41031 113.32175 65 ft 16 kts 194°
2026-05-08 11:02 23.40811 113.32115 65 ft 17 kts 194°
2026-05-08 11:02 23.40699 113.32085 65 ft 17 kts 194°
2026-05-08 11:03 23.40662 113.32075 65 ft 17 kts 194°
2026-05-08 11:03 23.40481 113.32027 65 ft 17 kts 194°
2026-05-08 11:03 23.40365 113.31995 65 ft 17 kts 194°
2026-05-08 11:03 23.40247 113.31964 65 ft 18 kts 193°
2026-05-08 11:04 23.40126 113.31932 65 ft 18 kts 194°
2026-05-08 11:04 23.40004 113.31900 65 ft 18 kts 194°
2026-05-08 11:04 23.39882 113.31867 65 ft 18 kts 194°
2026-05-08 11:04 23.39758 113.31833 65 ft 19 kts 194°
2026-05-08 11:05 23.39635 113.31792 65 ft 18 kts 208°
2026-05-08 11:05 23.39518 113.31750 65 ft 18 kts 194°
2026-05-08 11:05 23.39398 113.31717 65 ft 18 kts 194°
2026-05-08 11:05 23.39276 113.31684 65 ft 18 kts 194°
2026-05-08 11:06 23.39151 113.31651 65 ft 18 kts 194°
2026-05-08 11:06 23.39027 113.31617 65 ft 19 kts 194°
2026-05-08 11:06 23.38900 113.31583 65 ft 19 kts 194°
2026-05-08 11:06 23.38772 113.31549 65 ft 19 kts 193°
2026-05-08 11:07 23.38642 113.31514 65 ft 19 kts 194°
2026-05-08 11:07 23.38509 113.31478 65 ft 20 kts 194°
2026-05-08 11:07 23.38377 113.31442 65 ft 19 kts 194°
2026-05-08 11:07 23.38248 113.31406 65 ft 19 kts 194°
2026-05-08 11:08 23.38121 113.31377 65 ft 18 kts 193°
2026-05-08 11:08 23.38005 113.31344 65 ft 12 kts 195°
2026-05-08 11:08 23.37950 113.31360 65 ft 9 kts 108°
2026-05-08 11:08 23.37935 113.31432 65 ft 10 kts 103°
2026-05-08 11:09 23.37917 113.31515 65 ft 12 kts 103°
2026-05-08 11:09 23.37896 113.31609 65 ft 14 kts 104°
2026-05-08 11:09 23.37871 113.31716 65 ft 16 kts 104°
2026-05-08 11:09 23.37843 113.31835 65 ft 16 kts 104°
2026-05-08 11:10 23.37814 113.31956 65 ft 17 kts 104°
2026-05-08 11:10 23.37787 113.32079 65 ft 17 kts 103°
2026-05-08 11:10 23.37760 113.32202 65 ft 15 kts 103°
2026-05-08 11:10 23.37728 113.32272 65 ft 9 kts 170°
2026-05-08 11:11 23.37669 113.32260 65 ft 10 kts 194°
2026-05-08 11:11 23.37593 113.32239 65 ft 13 kts 194°
2026-05-08 11:11 23.37494 113.32212 65 ft 16 kts 194°
2026-05-08 11:11 23.37385 113.32182 65 ft 16 kts 194°
2026-05-08 11:12 23.37281 113.32154 65 ft 16 kts 194°
2026-05-08 11:12 23.37179 113.32126 65 ft 12 kts 194°
2026-05-08 11:12 23.37156 113.32070 65 ft 9 kts 281°
2026-05-08 11:12 23.37131 113.32016 65 ft 8 kts 229°
2026-05-08 11:13 23.37095 113.31972 65 ft 7 kts 229°
2026-05-08 11:13 23.37061 113.31931 65 ft 7 kts 223°
2026-05-08 11:13 23.37010 113.31906 65 ft 9 kts 197°
2026-05-08 11:13 23.36945 113.31891 65 ft 10 kts 181°
2026-05-08 11:14 23.36869 113.31912 65 ft 12 kts 160°
2026-05-08 11:14 23.36789 113.31941 65 ft 12 kts 174°
2026-05-08 11:14 23.36710 113.31925 65 ft 9 kts 196°
2026-05-08 11:14 23.36663 113.31905 65 ft 6 kts 235°
2026-05-08 11:15 23.36665 113.31859 65 ft 6 kts 274°
2026-05-08 11:15 23.36666 113.31831 65 ft 2 kts 270°
2026-05-08 11:15 23.36666 113.31827 65 ft 0 kts 270°